Blakely, GA

7:46 AM EST on February 26, 2017 (GMT -0500)
Blakely

Weather History for KBIJ - January, 2013

Change the Weather History Date:

Thursday, January 10, 2013

  Actual Average (KDHN) Record (KDHN)
Temperature  
Mean Temperature 71 °F -  
Max Temperature 78 °F 58 °F 80 °F (1949)
Min Temperature 64 °F 40 °F -47 °F (2001)
Cooling Degree Days 6    
Growing Degree Days 21 (Base 50)    
Moisture  
Dew Point 66 °F    
Average Humidity 93    
Maximum Humidity 100    
Minimum Humidity 65    
Precipitation  
Precipitation 0.00 in - - ()
Sea Level Pressure  
Sea Level Pressure 30.29 in    
Wind  
Wind Speed 5 mph (East)    
Max Wind Speed 10 mph    
Max Gust Speed -    
Visibility 8 miles    
Events Rain    
Averages and records for this station are not official NWS values.
T = Trace of Precipitation, MM = Missing Value Source: NWS Daily Summary

Daily Weather History Graph

Daily Weather History Graph

Search for Another Location

Airport or City:

Trip Planner

Search our weather history database for the weather conditions in past years. The results will help you decide how hot, cold, wet, or windy it might be!

Date:

Astronomy

Jan. 10, 2013 Rise Set
Actual Time 7:39 AM EST 5:55 PM EST
Civil Twilight 7:13 AM EST 6:21 PM EST
Nautical Twilight 6:43 AM EST 6:51 PM EST
Astronomical Twilight 6:13 AM EST 7:20 PM EST
Moon 6:18 AM EST (1/10) 5:01 PM EST (1/10)
Length of Visible Light 11h 08m
Length of Day
10h 15m
Waning Crescent, 2% of the Moon is Illuminated
Jan 10
Waning Crescent
Jan 11
New
Jan 18
First Quarter
Jan 26
Full
Feb 3
Last Quarter

Hourly Weather History & Observations

Time (EST) Temp. Dew Point Humidity Pressure Visibility Wind Dir Wind Speed Gust Speed Precip Events Conditions
12:15 AM 64.4 °F 64.4 °F 100% 30.35 in 10.0 mi ENE 5.8 mph - N/A   Overcast
12:35 AM 66.2 °F 64.4 °F 94% 30.34 in 10.0 mi East 6.9 mph - N/A   Overcast
12:55 AM 66.2 °F 64.4 °F 94% 30.34 in 7.0 mi East 6.9 mph - N/A   Overcast
1:15 AM 66.2 °F 64.4 °F 94% 30.34 in 7.0 mi East 5.8 mph - N/A   Overcast
1:35 AM 66.2 °F 64.4 °F 94% 30.34 in 7.0 mi East 5.8 mph - N/A   Overcast
1:55 AM 66.2 °F 64.4 °F 94% 30.34 in 7.0 mi East 4.6 mph - N/A   Overcast
3:35 AM 66.2 °F 66.2 °F 100% 30.33 in 4.0 mi East 4.6 mph - N/A   Overcast
3:55 AM 66.2 °F 66.2 °F 100% 30.33 in 2.5 mi East 4.6 mph - N/A   Overcast
4:15 AM 66.2 °F 66.2 °F 100% 30.33 in 2.0 mi East 4.6 mph - N/A   Overcast
4:35 AM 66.2 °F 66.2 °F 100% 30.32 in 2.5 mi East 4.6 mph - N/A   Overcast
4:55 AM 66.2 °F 66.2 °F 100% 30.32 in 2.5 mi East 4.6 mph - N/A   Overcast
5:15 AM 66.2 °F 66.2 °F 100% 30.31 in 3.0 mi East 4.6 mph - N/A   Overcast
5:35 AM 66.2 °F 66.2 °F 100% 30.30 in 4.0 mi East 3.5 mph - N/A   Overcast
5:55 AM 66.2 °F 66.2 °F 100% 30.31 in 5.0 mi East 3.5 mph - N/A   Overcast
6:35 AM 66.2 °F 66.2 °F 100% 30.31 in 7.0 mi Calm Calm - N/A   Overcast
6:55 AM 66.2 °F 66.2 °F 100% 30.31 in 5.0 mi Calm Calm - N/A   Overcast
7:35 AM 64.4 °F 64.4 °F 100% 30.31 in 7.0 mi East 4.6 mph - N/A   Overcast
7:55 AM 66.2 °F 66.2 °F 100% 30.31 in 7.0 mi East 5.8 mph - N/A   Overcast
8:15 AM 66.2 °F 66.2 °F 100% 30.32 in 5.0 mi East 5.8 mph - N/A   Overcast
8:55 AM 68.0 °F 66.2 °F 94% 30.32 in 7.0 mi East 6.9 mph - N/A   Overcast
9:35 AM 68.0 °F 66.2 °F 94% 30.33 in 5.0 mi East 4.6 mph - N/A   Overcast
9:55 AM 68.0 °F 66.2 °F 94% 30.33 in 7.0 mi East 4.6 mph - N/A   Overcast
10:15 AM 68.0 °F 66.2 °F 94% 30.33 in 7.0 mi East 4.6 mph - N/A   Overcast
10:35 AM 69.8 °F 68.0 °F 94% 30.32 in 10.0 mi East 4.6 mph - N/A   Overcast
10:55 AM 69.8 °F 68.0 °F 94% 30.33 in 10.0 mi East 4.6 mph - N/A   Overcast
11:15 AM 69.8 °F 68.0 °F 94% 30.33 in 10.0 mi ESE 5.8 mph - N/A   Overcast
11:35 AM 69.8 °F 68.0 °F 94% 30.33 in 10.0 mi ESE 3.5 mph - N/A   Overcast
11:55 AM 71.6 °F 68.0 °F 88% 30.33 in 10.0 mi ESE 5.8 mph - N/A   Overcast
12:15 PM 71.6 °F 68.0 °F 88% 30.31 in 10.0 mi ESE 5.8 mph - N/A   Overcast
12:35 PM 71.6 °F 68.0 °F 88% 30.30 in 10.0 mi ESE 6.9 mph - N/A   Overcast
12:55 PM 73.4 °F 68.0 °F 83% 30.30 in 10.0 mi SSE 4.6 mph - N/A   Overcast
1:15 PM 73.4 °F 68.0 °F 83% 30.28 in 10.0 mi Calm Calm - N/A   Overcast
1:35 PM 75.2 °F 68.0 °F 78% 30.27 in 10.0 mi ESE 5.8 mph - N/A   Overcast
1:55 PM 77.0 °F 66.2 °F 69% 30.26 in 10.0 mi South 9.2 mph - N/A   Overcast
2:15 PM 78.8 °F 68.0 °F 69% 30.26 in 10.0 mi South 10.4 mph - N/A   Mostly Cloudy
2:35 PM 78.8 °F 66.2 °F 65% 30.25 in 10.0 mi South 4.6 mph - N/A   Mostly Cloudy
2:55 PM 77.0 °F 66.2 °F 69% 30.25 in 10.0 mi ESE 8.1 mph - N/A   Overcast
3:15 PM 75.2 °F 68.0 °F 78% 30.26 in 10.0 mi ENE 6.9 mph - N/A   Overcast
3:35 PM 77.0 °F 68.0 °F 74% 30.25 in 10.0 mi ENE 6.9 mph - N/A   Mostly Cloudy
3:55 PM 75.2 °F 68.0 °F 78% 30.25 in 10.0 mi ENE 3.5 mph - N/A   Mostly Cloudy
4:15 PM 75.2 °F 68.0 °F 78% 30.25 in 10.0 mi ENE 6.9 mph - N/A   Mostly Cloudy
4:35 PM 73.4 °F 68.0 °F 83% 30.25 in 10.0 mi ENE 6.9 mph - N/A Rain Rain
4:55 PM 71.6 °F 69.8 °F 94% 30.26 in 1.5 mi SW 3.5 mph - N/A Rain Light Rain
5:15 PM 71.6 °F 68.0 °F 88% 30.26 in 5.0 mi SE 5.8 mph - N/A Rain Heavy Rain
5:35 PM 69.8 °F 68.0 °F 94% 30.26 in 7.0 mi Calm Calm - N/A Rain Light Rain
5:55 PM 69.8 °F 68.0 °F 94% 30.26 in 10.0 mi East 4.6 mph - N/A   Overcast
6:15 PM 68.0 °F 68.0 °F 100% 30.26 in 10.0 mi East 3.5 mph - N/A   Overcast
6:35 PM 68.0 °F 68.0 °F 100% 30.26 in 10.0 mi East 3.5 mph - N/A   Mostly Cloudy
6:55 PM 68.0 °F 68.0 °F 100% 30.26 in 10.0 mi East 4.6 mph - N/A   Scattered Clouds
7:15 PM 68.0 °F 66.2 °F 94% 30.26 in 10.0 mi East 4.6 mph - N/A   Scattered Clouds
7:35 PM 68.0 °F 66.2 °F 94% 30.26 in 10.0 mi Calm Calm - N/A   Scattered Clouds
7:55 PM 66.2 °F 66.2 °F 100% 30.26 in 10.0 mi Calm Calm - N/A   Scattered Clouds
8:15 PM 66.2 °F 66.2 °F 100% 30.26 in 10.0 mi Calm Calm - N/A   Scattered Clouds
8:35 PM 64.4 °F 64.4 °F 100% 30.27 in 7.0 mi Calm Calm - N/A   Scattered Clouds
8:55 PM 64.4 °F 64.4 °F 100% 30.27 in 2.0 mi Calm Calm - N/A   Clear
9:15 PM 64.4 °F 64.4 °F 100% 30.26 in 7.0 mi East 4.6 mph - N/A   Clear
9:55 PM 64.4 °F 64.4 °F 100% 30.25 in 7.0 mi East 6.9 mph - N/A   Scattered Clouds
10:15 PM 64.4 °F 64.4 °F 100% 30.25 in 7.0 mi ESE 4.6 mph - N/A   Scattered Clouds
10:35 PM 64.4 °F 64.4 °F 100% 30.25 in 7.0 mi Calm Calm - N/A   Mostly Cloudy
10:55 PM 64.4 °F 64.4 °F 100% 30.25 in 7.0 mi ESE 3.5 mph - N/A   Overcast
11:15 PM 64.4 °F 64.4 °F 100% 30.25 in 7.0 mi Calm Calm - N/A   Overcast
11:35 PM 64.4 °F 64.4 °F 100% 30.25 in 7.0 mi Calm Calm - N/A   Overcast